Regional Weather Roundup
Issued by NWS Little Rock, AR

Home | Current Version | Previous Version | Graphics & Text | Print | Product List | Glossary On
Versions: 1 2 3 4 5 6 7 8 9 10 11 12 13 14 15 16 17 18 19 20 21 22 23 24 25 26 27 28 29 30 31 32
000
ASUS44 KLZK 280612
RWRLZK

WEATHER ROUNDUP FOR ARKANSAS
NATIONAL WEATHER SERVICE LITTLE ROCK AR
100 AM CDT FRI APR 28 2017

NOTE: "FAIR" INDICATES FEW OR NO CLOUDS BELOW 12,000 FEET WITH NO
SIGNIFICANT WEATHER AND/OR OBSTRUCTIONS TO VISIBILITY.

ARZ001-003-010-029-280700-
NORTHWEST ARKANSAS

CITY           SKY/WX    TMP DP  RH WIND       PRES   REMARKS
FAYETTEVILLE   CLOUDY    56  52  86 NE5       29.75S
6HR MIN TEMP:  55; 6HR MAX TEMP:  62; 6HR PCP: TRACE;

FORT SMITH     CLEAR     59  51  75 E12       29.73R
6HR MIN TEMP:  59; 6HR MAX TEMP:  68;

HARRISON       CLOUDY    56  49  77 SE8       29.79F
6HR MIN TEMP:  56; 6HR MAX TEMP:  64;

BENTONVILLE    CLOUDY    57  50  77 SE7       29.76S
6HR MIN TEMP:  57; 6HR MAX TEMP:  63; 6HR PCP:  0.01;

ROGERS         CLOUDY    56  52  86 E9        29.76R
6HR MIN TEMP:  55; 6HR MAX TEMP:  63; 6HR PCP: TRACE;

SILOAM SPGS    MOCLDY    55  48  76 E3        29.75S
6HR MIN TEMP:  55; 6HR MAX TEMP:  61;

HIGHFILL       CLOUDY    57  52  83 E5        29.75R
6HR MIN TEMP:  56; 6HR MAX TEMP:  63; 6HR PCP:  0.01;

$$

ARZ004-005-016-280700-
NORTH CENTRAL ARKANSAS

CITY           SKY/WX    TMP DP  RH WIND       PRES   REMARKS
BATESVILLE     PTCLDY    54  50  87 E5        29.81F
6HR MIN TEMP:  54; 6HR MAX TEMP:  64;

FLIPPIN        CLOUDY   N/A N/A N/A NE3       29.78S
MTN HOME       CLOUDY    56  49  77 SE5       29.80S
6HR MIN TEMP:  56; 6HR MAX TEMP:  64;

$$

ARZ040-041-280700-
WEST CENTRAL ARKANSAS

CITY           SKY/WX    TMP DP  RH WIND       PRES   REMARKS
MENA           CLOUDY    55  54  94 CALM      29.74S
MOUNT IDA      PTCLDY    59  53  80 E3        29.73R
6HR MIN TEMP:  59; 6HR MAX TEMP:  67;

$$

ARZ009-017-025-026-028-280700-
NORTHEAST ARKANSAS

CITY           SKY/WX    TMP DP  RH WIND       PRES   REMARKS
CORNING        FAIR      57  55  94 E8        29.83F
JONESBORO      CLEAR     55  52  89 CALM      29.82R
6HR MIN TEMP:  54; 6HR MAX TEMP:  65;

NEWPORT        CLEAR     56  54  93 E6        29.82S
6HR MIN TEMP:  56; 6HR MAX TEMP:  65;

WALNUT RIDGE   MOCLDY    57  52  82 E7        29.82S
6HR MIN TEMP:  57; 6HR MAX TEMP:  64;

BLYTHEVILLE    CLEAR     56  53  90 E6        29.83S
6HR MIN TEMP:  55; 6HR MAX TEMP:  64;

$$

ARZ022-023-033-042-044-280700-
CENTRAL ARKANSAS

CITY           SKY/WX    TMP DP  RH WIND       PRES   REMARKS
LITTLE ROCK    PTCLDY    56  55  97 SE5       29.78F
6HR MIN TEMP:  56; 6HR MAX TEMP:  65;

N LITTLE ROCK    N/A     56  53  89 CALM      29.79F
6HR MIN TEMP:  55; 6HR MAX TEMP:  65;

JACKSONVILLE   CLEAR     52  52  99 NE3       29.78S
6HR MIN TEMP:  52; 6HR MAX TEMP:  66;

CONWAY           N/A     57  55  94 NE7       29.77R
SEARCY         CLEAR     52  52 100 CALM      29.82S
6HR MIN TEMP:  52; 6HR MAX TEMP:  66;

HOT SPRINGS    CLOUDY    59  54  83 E7        29.76F
6HR MIN TEMP:  59; 6HR MAX TEMP:  69;

RUSSELLVILLE   CLOUDY    58  52  80 E3        29.78R
6HR MIN TEMP:  57; 6HR MAX TEMP:  67;

CLINTON          N/A     52  50  93 CALM      29.81R
$$

ARZ036-280700-
EAST ARKANSAS

CITY           SKY/WX    TMP DP  RH WIND       PRES   REMARKS
WEST MEMPHIS   CLEAR     56  54  93 SE7       29.81R
6HR MIN TEMP:  55; 6HR MAX TEMP:  64;

$$

ARZ050-053-066-070-073-280700-
SOUTHWEST ARKANSAS

CITY           SKY/WX    TMP DP  RH WIND       PRES   REMARKS
ARKADELPHIA    MOCLDY    59  56  89 CALM      29.76F
6HR MIN TEMP:  58; 6HR MAX TEMP:  70;

CAMDEN         CLEAR     57  52  82 CALM      29.75F
TEXARKANA      CLEAR     58  54  86 E3        29.70F
6HR MIN TEMP:  57; 6HR MAX TEMP:  69;

EL DORADO      CLEAR     58  54  86 E5        29.75S
6HR MIN TEMP:  58; 6HR MAX TEMP:  70;

DE QUEEN       CLEAR     58  55  90 E7        29.69F
6HR MIN TEMP:  55; 6HR MAX TEMP:  69;

$$

ARZ056-057-069-280700-
SOUTHEAST ARKANSAS

CITY           SKY/WX    TMP DP  RH WIND       PRES   REMARKS
PINE BLUFF     PTCLDY    58  55  90 SE6       29.77F
6HR MIN TEMP:  58; 6HR MAX TEMP:  67;

STUTTGART      CLEAR     59  46  63 E8        29.79F
6HR MIN TEMP:  59; 6HR MAX TEMP:  66;

MONTICELLO     CLOUDY    58  54  86 SE3       29.78S
6HR MIN TEMP:  56; 6HR MAX TEMP:  68;


$$






USA.gov is the U.S. government's official web portal to all federal, state and local government web resources and services.